| time (UTC) | temp C | wind direction | speed KPH | gust KPH | rain 1hr cm | rain 24hr cm | rain mn cm | humidity % | barometer mb |
| 20260506131534 | 10 | 19 | 0.0 | 0.0 | 0.03 | 0.03 | 0.03 | 96 | 1020.9 |
| 20260506130011 | 10 | 19 | 0.0 | 0.0 | 0.00 | 0.00 | 0.00 | 96 | 1020.9 |
| 20260506124547 | 10 | 19 | 0.0 | 0.0 | 0.00 | 0.00 | 0.00 | 96 | 1020.8 |
| 20260506123017 | 10 | 19 | 0.0 | 0.0 | 0.00 | 0.00 | 0.00 | 96 | 1020.8 |
| 20260506121550 | 10 | 19 | 0.0 | 1.6 | 0.00 | 0.00 | 0.00 | 96 | 1020.6 |
| 20260506120027 | 10 | 19 | 0.0 | 0.0 | 0.00 | 0.00 | 0.00 | 96 | 1020.5 |
| 20260506114606 | 10 | 19 | 0.0 | 0.0 | 0.00 | 0.00 | 0.00 | 96 | 1020.6 |
| 20260506113032 | 10 | 19 | 0.0 | 0.0 | 0.00 | 0.00 | 0.00 | 96 | 1020.4 |
| 20260506111508 | 10 | 19 | 0.0 | 0.0 | 0.00 | 0.00 | 0.00 | 96 | 1020.3 |
| 20260506110036 | 10 | 19 | 0.0 | 0.0 | 0.00 | 0.00 | 0.00 | 96 | 1020.0 |
| 20260506104516 | 9 | 19 | 0.0 | 0.0 | 0.00 | 0.00 | 0.00 | 96 | 1019.8 |
| 20260506103056 | 9 | 19 | 0.0 | 0.0 | 0.00 | 0.00 | 0.00 | 96 | 1019.7 |
| 20260506101545 | 9 | 19 | 0.0 | 0.0 | 0.00 | 0.00 | 0.00 | 96 | 1019.7 |
| 20260506100018 | 9 | 19 | 0.0 | 0.0 | 0.00 | 0.00 | 0.00 | 96 | 1019.7 |
| 20260506094615 | 9 | 19 | 0.0 | 0.0 | 0.00 | 0.00 | 0.00 | 95 | 1019.6 |
| 20260506093030 | 9 | 19 | 0.0 | 0.0 | 0.00 | 0.00 | 0.00 | 95 | 1019.7 |
| 20260506091558 | 9 | 19 | 0.0 | 0.0 | 0.00 | 0.00 | 0.00 | 96 | 1019.6 |
| 20260506090028 | 8 | 19 | 0.0 | 0.0 | 0.00 | 0.00 | 0.00 | 96 | 1019.6 |
| 20260506084504 | 8 | 19 | 0.0 | 0.0 | 0.00 | 0.00 | 0.00 | 95 | 1019.6 |
| 20260506083032 | 8 | 19 | 0.0 | 0.0 | 0.00 | 0.00 | 0.00 | 95 | 1019.4 |
| 20260506081508 | 8 | 19 | 0.0 | 0.0 | 0.00 | 0.00 | 0.00 | 95 | 1019.2 |
| 20260506073050 | 8 | 19 | 0.0 | 0.0 | 0.00 | 0.00 | 0.00 | 94 | 1018.8 |
| 20260506071544 | 8 | 19 | 0.0 | 0.0 | 0.00 | 0.00 | 0.00 | 94 | 1018.8 |
| 20260506061514 | 10 | 19 | 0.0 | 0.0 | 0.00 | 0.00 | 0.00 | 93 | 1018.5 |
| 20260506044536 | 11 | 19 | 0.0 | 0.0 | 0.00 | 0.00 | 0.00 | 91 | 1017.9 |
| 20260506043054 | 11 | 19 | 0.0 | 0.0 | 0.00 | 0.00 | 0.00 | 90 | 1017.7 |
| 20260506041532 | 11 | 19 | 0.0 | 0.0 | 0.00 | 0.00 | 0.00 | 90 | 1017.5 |
| 20260506040002 | 11 | 19 | 0.0 | 0.0 | 0.00 | 0.00 | 0.00 | 89 | 1017.4 |
| 20260506034536 | 12 | 19 | 0.0 | 0.0 | 0.00 | 0.00 | 0.00 | 88 | 1017.2 |
| 20260506033022 | 12 | 19 | 0.0 | 0.0 | 0.00 | 0.00 | 0.00 | 87 | 1017.1 |
| 20260506031526 | 12 | 19 | 0.0 | 0.0 | 0.00 | 0.00 | 0.00 | 86 | 1017.1 |
| 20260506030034 | 13 | 19 | 0.0 | 0.0 | 0.00 | 0.00 | 0.00 | 85 | 1017.0 |
| 20260506024519 | 13 | 19 | 0.0 | 0.0 | 0.00 | 0.00 | 0.00 | 84 | 1017.1 |
| 20260506023043 | 13 | 19 | 0.0 | 0.0 | 0.00 | 0.00 | 0.00 | 83 | 1017.0 |
| 20260506021522 | 14 | 19 | 0.0 | 0.0 | 0.00 | 0.00 | 0.00 | 81 | 1017.0 |
| 20260506020052 | 14 | 20 | 0.0 | 4.8 | 0.00 | 0.00 | 0.00 | 81 | 1016.9 |
| 20260506014533 | 14 | 15 | 1.6 | 8.0 | 0.00 | 0.00 | 0.00 | 80 | 1016.9 |
| 20260506013056 | 15 | 47 | 0.0 | 8.0 | 0.00 | 0.00 | 0.00 | 80 | 1016.9 |
| 20260506011538 | 15 | 40 | 0.0 | 8.0 | 0.00 | 0.00 | 0.00 | 80 | 1016.9 |
| 20260506010100 | 15 | 69 | 0.0 | 8.0 | 0.00 | 0.00 | 0.00 | 79 | 1017.0 |
| 20260506010012 | 15 | 69 | 0.0 | 8.0 | 0.00 | 0.00 | 0.00 | 79 | 1017.0 |
| 20260506004539 | 15 | 35 | 4.8 | 14.5 | 0.00 | 0.00 | 0.00 | 79 | 1017.0 |
| 20260506003013 | 15 | 29 | 4.8 | 14.5 | 0.00 | 0.00 | 0.00 | 79 | 1017.1 |
| 20260506001546 | 15 | 78 | 0.0 | 16.1 | 0.00 | 0.00 | 0.00 | 80 | 1017.0 |
| 20260506000038 | 16 | 71 | 1.6 | 9.7 | 0.00 | 0.00 | 0.00 | 79 | 1017.1 |
| 20260505234518 | 16 | 40 | 1.6 | 9.7 | 0.00 | 0.00 | 0.00 | 79 | 1017.2 |
| 20260505233053 | 16 | 22 | 3.2 | 16.1 | 0.00 | 0.00 | 0.00 | 80 | 1017.3 |
| 20260505231533 | 15 | 38 | 4.8 | 16.1 | 0.00 | 0.00 | 0.00 | 80 | 1017.3 |
| 20260505230054 | 16 | 36 | 8.0 | 16.1 | 0.00 | 0.00 | 0.00 | 79 | 1017.4 |
| 20260505224534 | 16 | 45 | 9.7 | 20.9 | 0.00 | 0.00 | 0.00 | 81 | 1017.5 |
| 20260505223056 | 15 | 25 | 9.7 | 20.9 | 0.00 | 0.00 | 0.00 | 82 | 1017.5 |
| 20260505221534 | 15 | 14 | 11.3 | 20.9 | 0.00 | 0.00 | 0.00 | 79 | 1017.7 |
| 20260505220057 | 16 | 53 | 3.2 | 17.7 | 0.00 | 0.00 | 0.00 | 83 | 1017.8 |
| 20260505220006 | 16 | 53 | 3.2 | 17.7 | 0.00 | 0.00 | 0.00 | 82 | 1017.8 |
| 20260505214547 | 15 | 14 | 11.3 | 17.7 | 0.00 | 0.00 | 0.00 | 82 | 1018.0 |
| 20260505213007 | 15 | 53 | 6.4 | 17.7 | 0.00 | 0.00 | 0.00 | 85 | 1018.2 |
| 20260505211546 | 15 | 51 | 11.3 | 20.9 | 0.00 | 0.00 | 0.00 | 84 | 1018.1 |
| 20260505210034 | 15 | 16 | 9.7 | 19.3 | 0.00 | 0.00 | 0.00 | 85 | 1018.1 |
| 20260505204508 | 15 | 61 | 8.0 | 16.1 | 0.00 | 0.00 | 0.00 | 85 | 1018.1 |
| 20260505203010 | 15 | 37 | 1.6 | 9.7 | 0.00 | 0.00 | 0.00 | 85 | 1018.2 |
| 20260505201545 | 13 | 38 | 6.4 | 14.5 | 0.00 | 0.00 | 0.00 | 88 | 1018.3 |
| 20260505200028 | 13 | 35 | 9.7 | 16.1 | 0.00 | 0.00 | 0.00 | 87 | 1018.4 |
| 20260505194607 | 13 | 16 | 8.0 | 16.1 | 0.00 | 0.00 | 0.00 | 87 | 1018.4 |
| 20260505193021 | 14 | 13 | 9.7 | 16.1 | 0.00 | 0.00 | 0.00 | 85 | 1018.3 |
| 20260505191555 | 15 | 196 | 0.0 | 6.4 | 0.00 | 0.00 | 0.00 | 85 | 1018.2 |
| 20260505190019 | 14 | 196 | 1.6 | 6.4 | 0.00 | 0.00 | 0.00 | 84 | 1018.3 |
| 20260505184553 | 14 | 198 | 0.0 | 4.8 | 0.00 | 0.00 | 0.00 | 87 | 1018.3 |
| 20260505183045 | 14 | 197 | 0.0 | 0.0 | 0.00 | 0.00 | 0.00 | 86 | 1018.3 |
| 20260505181521 | 13 | 197 | 0.0 | 3.2 | 0.00 | 0.00 | 0.00 | 87 | 1018.2 |
| 20260505180042 | 13 | 198 | 0.0 | 4.8 | 0.00 | 0.00 | 0.00 | 88 | 1018.2 |
| 20260505174519 | 13 | 196 | 0.0 | 8.0 | 0.00 | 0.00 | 0.00 | 88 | 1018.0 |
| 20260505173046 | 13 | 190 | 3.2 | 8.0 | 0.00 | 0.00 | 0.00 | 88 | 1018.0 |
| 20260505171524 | 13 | 228 | 0.0 | 4.8 | 0.00 | 0.00 | 0.00 | 89 | 1017.9 |
| 20260505170050 | 12 | 234 | 0.0 | 4.8 | 0.00 | 0.00 | 0.00 | 90 | 1018.1 |
| 20260505164529 | 12 | 187 | 0.0 | 1.6 | 0.00 | 0.00 | 0.00 | 91 | 1018.0 |
| 20260505163105 | 12 | 187 | 0.0 | 3.2 | 0.00 | 0.00 | 0.00 | 91 | 1017.9 |
| 20260505161536 | 12 | 39 | 0.0 | 4.8 | 0.00 | 0.00 | 0.00 | 92 | 1017.8 |
| 20260505153009 | 12 | 219 | 0.0 | 1.6 | 0.00 | 0.00 | 0.00 | 93 | 1017.5 |
| 20260505151555 | 12 | 32 | 0.0 | 0.0 | 0.00 | 0.00 | 0.00 | 93 | 1017.5 |